Probability
19 55 84 81 84 81 84 84 84 90 90 90 94 87 87 81 87 90 84 84 84 74 77 84 81 71 71 74 77 74 68 74 68 74 81 87 90 97 90 90 87 77 90
52 65 90 90 84 84 90 87 84 87 87 94 90 84 87 87 81 84 84 87 87 84 84 77 84 74 71 65 71 74 81 84 77 81 90 81 84 87 87 77 68 68 90
68 71 84 100 94 100 100 97 97 97 94 90 94 90 90 87 90 94 90 87 84 84 84 81 81 81 84 68 74 81 77 81 81 84 77 65 77 84 81 74 81 84 87
74 71 90 100 100 97 100 97 97 94 94 94 94 94 94 97 94 90 94 87 87 94 87 90 84 84 74 74 77 77 77 81 81 65 39 29 48 77 87 84 81 84 87
65 87 97 100 97 97 90 97 100 100 97 94 90 87 94 100 100 97 94 94 94 90 94 81 77 81 74 77 77 77 77 61 58 26 19 29 55 77 77 77 71 71 71
68 94 100 97 100 97 97 97 94 94 94 94 94 100 97 97 97 94 94 94 97 87 77 77 71 77 71 65 65 68 65 55 29 13 16 23 61 81 71 77 68 65 65
68 87 100 100 100 100 97 94 97 97 94 94 94 94 97 94 90 97 94 87 81 87 81 71 61 61 61 65 61 55 61 52 10 13 16 19 58 77 81 77 71 77 74
74 90 100 100 100 100 94 94 94 94 94 84 87 94 94 97 94 90 81 81 74 74 77 61 55 58 61 61 58 68 61 42 13 13 16 32 61 74 74 77 74 74 71
84 84 84 87 100 100 97 94 94 94 90 90 87 90 94 87 84 77 81 84 77 68 61 58 65 61 65 58 52 55 55 32 6 10 13 32 71 68 68 74 68 65 61
65 65 65 68 71 74 84 97 94 90 90 87 90 90 87 81 71 68 84 87 74 74 71 71 68 65 58 55 55 55 48 35 6 10 19 45 71 68 65 74 68 65 52
58 55 48 45 45 48 71 81 74 81 87 77 65 81 65 29 39 55 65 74 71 61 55 58 65 68 61 58 65 65 42 19 13 10 10 52 74 68 77 71 68 61 58
26 26 26 29 35 39 42 52 55 61 55 45 42 26 13 6 10 42 68 61 71 65 55 65 71 52 23 10 19 26 10 10 6 10 19 55 68 77 71 71 68 68 65
13 23 26 29 26 26 23 35 26 29 26 26 23 13 3 3 3 6 10 29 26 26 16 19 23 16 16 0 3 3 6 6 6 6 29 52 74 77 65 58 61 65 68
13 13 16 19 19 16 10 19 19 13 13 10 10 10 6 6 6 6 13 6 6 10 13 10 6 10 6 3 3 3 6 6 3 3 23 45 74 68 65 65 58 55 55
13 16 19 16 10 6 6 6 10 10 6 6 6 6 6 6 6 3 3 3 3 3 3 3 3 3 3 3 3 10 10 6 0 3 13 32 65 74 58 61 55 61 52
10 13 13 16 13 6 6 6 6 3 6 6 3 6 6 3 3 6 3 0 0 0 0 0 6 3 0 0 3 6 3 3 3 0 3 13 55 71 61 61 68 61 55
6 3 3 16 6 3 3 3 6 6 3 3 3 3 3 3 0 0 0 0 0 0 0 0 0 0 0 0 0 0 0 0 0 0 3 6 19 52 68 65 74 68 61
10 6 6 23 13 6 6 6 10 6 10 6 3 3 3 0 0 0 0 0 0 0 0 0 0 0 0 0 0 0 0 3 3 0 0 0 6 10 42 68 68 68 52
10 6 10 19 10 6 6 10 10 6 6 6 6 3 3 0 0 0 0 0 0 0 0 0 0 0 0 0 0 0 0 0 0 0 0 0 0 3 3 23 68 68 58
6 10 13 13 13 10 6 10 10 10 6 6 10 3 3 0 3 0 0 0 0 0 0 0 0 0 0 0 0 0 0 0 0 0 0 0 0 0 0 3 19 32 61
13 10 13 13 13 10 10 10 3 6 10 6 3 0 0 0 0 0 0 0 0 0 0 0 0 3 0 0 0 0 0 0 0 0 0 0 0 0 0 0 0 3 19
16 13 10 13 13 10 10 10 3 0 0 3 3 3 0 3 0 3 0 0 0 0 0 0 0 3 3 0 3 3 3 0 0 0 0 0 0 0 0 0 0 0 0
19 19 26 16 13 10 10 6 6 3 3 6 6 6 6 3 6 10 3 0 0 0 0 0 0 0 3 3 0 3 3 0 0 0 0 0 0 0 3 3 0 0 3
26 29 23 19 13 13 10 6 6 6 3 3 6 6 6 13 10 10 6 3 3 0 0 0 3 0 3 3 0 0 0 0 0 0 0 0 0 0 0 0 0 0 0
35 39 23 19 16 16 13 10 10 6 3 3 6 10 6 6 6 6 6 3 0 0 0 0 0 0 0 0 0 0 0 0 0 0 0 0 0 0 0 0 0 0 3
42 39 29 26 26 23 19 13 10 13 6 3 3 6 6 6 6 6 6 6 6 3 3 6 0 0 0 0 0 0 0 0 0 0 0 0 0 0 0 0 0 0 0
Height
5871 5870 5870 5870 5870 5870 5869 5870 5870 5870 5870 5870 5871 5871 5872 5872 5871 5871 5869 5870 5871 5874 5875 5876 5878 5879 5880 5881 5881 5882 5883 5884 5885 5885 5886 5887 5887 5888 5889 5890 5890 5891 5892
5872 5872 5871 5871 5871 5871 5871 5871 5871 5871 5871 5871 5872 5872 5873 5873 5873 5872 5871 5872 5873 5875 5876 5878 5879 5880 5881 5881 5882 5883 5884 5885 5885 5886 5887 5887 5888 5889 5890 5891 5891 5892 5893
5874 5873 5873 5872 5872 5872 5872 5872 5872 5872 5872 5873 5873 5873 5874 5874 5874 5874 5874 5874 5875 5877 5878 5879 5880 5881 5881 5882 5883 5884 5885 5886 5886 5887 5888 5888 5889 5890 5891 5891 5892 5893 5894
5875 5874 5874 5874 5873 5873 5873 5873 5873 5873 5873 5874 5874 5874 5875 5875 5875 5875 5876 5876 5877 5878 5879 5880 5881 5882 5882 5883 5883 5884 5885 5886 5887 5888 5888 5889 5890 5891 5892 5892 5893 5894 5895
5876 5876 5875 5875 5874 5874 5874 5874 5874 5874 5874 5874 5875 5875 5875 5876 5876 5877 5877 5878 5879 5879 5880 5881 5882 5882 5883 5883 5884 5885 5886 5887 5887 5888 5889 5890 5891 5892 5892 5893 5894 5894 5895
5877 5877 5876 5876 5875 5875 5875 5875 5875 5876 5876 5875 5876 5876 5876 5877 5877 5878 5878 5879 5880 5880 5881 5882 5882 5883 5883 5884 5885 5885 5886 5887 5888 5889 5890 5891 5891 5892 5893 5894 5894 5895 5896
5879 5878 5877 5877 5876 5876 5876 5876 5876 5876 5877 5877 5877 5877 5877 5878 5879 5879 5880 5880 5881 5881 5882 5883 5883 5884 5884 5885 5886 5886 5887 5888 5889 5889 5890 5891 5891 5892 5893 5894 5895 5896 5896
5879 5879 5878 5878 5878 5877 5877 5877 5877 5877 5878 5878 5878 5878 5878 5879 5880 5881 5881 5882 5882 5883 5883 5883 5884 5885 5885 5886 5886 5887 5888 5888 5889 5890 5891 5891 5892 5893 5894 5895 5895 5896 5897
5880 5879 5879 5879 5878 5878 5878 5878 5878 5878 5879 5879 5879 5879 5880 5881 5881 5882 5883 5883 5883 5884 5884 5885 5885 5886 5886 5887 5887 5888 5888 5889 5890 5890 5891 5892 5893 5894 5895 5895 5896 5897 5898
5881 5881 5880 5879 5879 5879 5879 5879 5879 5879 5880 5880 5880 5881 5881 5882 5882 5883 5884 5884 5884 5885 5885 5885 5886 5887 5887 5888 5888 5889 5889 5890 5890 5891 5892 5893 5894 5895 5895 5896 5897 5897 5898
5882 5881 5881 5880 5880 5880 5880 5880 5880 5880 5881 5881 5881 5882 5882 5883 5883 5884 5884 5885 5885 5886 5886 5886 5887 5887 5888 5888 5889 5890 5890 5891 5891 5892 5893 5894 5895 5895 5896 5897 5897 5898 5899
5883 5882 5881 5881 5881 5881 5881 5881 5881 5881 5882 5882 5882 5882 5883 5883 5884 5885 5885 5886 5886 5887 5887 5887 5888 5888 5889 5890 5890 5891 5891 5892 5892 5893 5893 5894 5895 5896 5897 5897 5898 5899 5899
5884 5883 5883 5882 5881 5881 5881 5881 5882 5882 5882 5883 5883 5883 5884 5884 5885 5885 5886 5887 5887 5888 5888 5888 5889 5889 5890 5890 5891 5891 5892 5892 5893 5893 5894 5895 5896 5896 5897 5898 5899 5899 5899
5885 5884 5884 5883 5883 5882 5882 5882 5882 5883 5883 5883 5883 5884 5884 5885 5885 5886 5887 5887 5888 5889 5889 5890 5890 5891 5891 5891 5892 5892 5893 5893 5894 5894 5895 5895 5896 5897 5898 5898 5899 5899 5900
5886 5885 5884 5884 5884 5883 5883 5883 5883 5883 5883 5884 5884 5884 5885 5885 5886 5887 5887 5887 5888 5889 5890 5890 5891 5891 5892 5892 5893 5893 5893 5894 5894 5895 5896 5896 5897 5897 5898 5899 5899 5899 5900
5887 5886 5885 5884 5884 5884 5883 5883 5883 5883 5884 5884 5884 5885 5885 5886 5886 5887 5887 5888 5888 5889 5890 5890 5891 5892 5892 5893 5893 5893 5894 5894 5895 5896 5896 5897 5897 5898 5898 5898 5899 5899 5899
5889 5888 5886 5885 5884 5884 5883 5883 5884 5884 5884 5885 5885 5885 5886 5886 5886 5887 5887 5888 5889 5889 5890 5891 5891 5892 5892 5893 5893 5894 5894 5895 5895 5896 5896 5897 5897 5897 5898 5898 5898 5898 5898
5891 5889 5888 5887 5885 5885 5884 5884 5884 5884 5885 5885 5885 5885 5886 5886 5886 5887 5887 5888 5889 5889 5890 5891 5891 5892 5892 5893 5893 5894 5894 5895 5895 5896 5896 5897 5897 5897 5897 5897 5898 5898 5898
5892 5891 5889 5888 5887 5886 5885 5885 5884 5884 5885 5885 5885 5885 5886 5886 5886 5887 5887 5888 5888 5889 5890 5891 5891 5892 5892 5893 5893 5893 5894 5894 5895 5895 5896 5896 5896 5896 5896 5897 5897 5896 5896
5894 5892 5891 5889 5888 5886 5886 5885 5885 5885 5885 5885 5885 5885 5885 5886 5886 5886 5887 5887 5888 5889 5889 5890 5891 5891 5892 5892 5892 5893 5893 5893 5894 5894 5895 5895 5895 5895 5895 5895 5895 5895 5894
5895 5894 5892 5891 5889 5888 5887 5886 5885 5885 5885 5885 5885 5885 5885 5885 5886 5886 5886 5887 5887 5888 5889 5889 5890 5890 5890 5891 5891 5891 5892 5892 5892 5893 5893 5893 5893 5893 5893 5893 5893 5893 5892
5897 5895 5893 5892 5890 5889 5888 5887 5886 5885 5885 5885 5885 5885 5885 5885 5885 5885 5885 5886 5886 5887 5887 5888 5888 5889 5889 5889 5890 5890 5890 5891 5891 5891 5891 5891 5891 5891 5891 5890 5890 5890 5890
5898 5896 5895 5893 5891 5890 5889 5887 5887 5886 5885 5884 5884 5884 5884 5884 5884 5884 5884 5885 5885 5885 5886 5886 5886 5887 5887 5887 5887 5888 5888 5888 5888 5889 5888 5888 5888 5888 5888 5888 5887 5887 5886
5899 5897 5895 5893 5892 5890 5889 5888 5887 5886 5885 5884 5884 5883 5883 5883 5883 5883 5883 5883 5883 5884 5884 5884 5884 5884 5884 5884 5884 5885 5885 5885 5885 5886 5886 5885 5885 5885 5885 5884 5884 5883 5883
5900 5898 5896 5894 5892 5891 5889 5888 5887 5886 5885 5884 5883 5882 5882 5882 5882 5882 5882 5882 5882 5882 5882 5881 5881 5881 5881 5881 5881 5881 5881 5881 5882 5882 5882 5882 5881 5881 5881 5880 5880 5879 5878
5901 5899 5897 5895 5893 5891 5889 5888 5886 5885 5884 5883 5882 5882 5881 5881 5880 5880 5880 5880 5880 5880 5879 5879 5878 5878 5878 5878 5878 5878 5878 5878 5878 5878 5878 5878 5877 5877 5876 5876 5875 5874 5873
Wind_Speed
9 8 8 7 8 8 8 8 8 8 8 8 8 7 7 6 6 6 5 4 5 5 6 6 5 5 5 4 5 6 6 6 7 6 7 7 8 7 7 7 7 7 7
8 8 8 8 8 8 9 9 9 9 8 8 7 7 7 7 7 7 7 6 6 6 6 5 5 5 5 5 5 6 6 5 6 7 7 7 7 7 7 7 7 7 7
8 8 8 8 8 9 9 9 9 9 8 8 8 7 7 7 7 7 7 7 6 6 5 5 4 4 4 4 5 6 6 6 6 6 7 7 7 7 7 7 7 7 7
7 8 8 8 8 8 9 9 8 8 8 8 8 8 8 8 7 7 7 7 6 5 5 5 4 4 4 4 5 5 5 5 6 6 6 6 6 6 6 7 7 7 7
7 7 8 8 8 8 8 8 8 8 8 8 8 8 8 8 8 7 7 7 6 5 5 5 4 4 4 4 5 5 4 5 6 6 6 6 6 5 6 7 7 7 7
7 8 8 8 8 8 8 8 8 7 8 8 8 8 8 8 7 7 7 7 6 5 5 4 4 4 4 4 4 4 4 5 6 6 5 5 5 6 6 6 6 7 6
7 8 8 8 8 8 8 7 7 7 7 7 8 8 8 7 7 8 7 7 6 5 5 4 5 4 5 5 5 4 4 5 5 6 6 5 5 6 6 6 6 6 6
8 8 8 7 7 7 7 7 7 7 7 7 7 8 7 8 7 7 6 6 5 5 4 4 5 5 6 6 5 5 5 5 5 5 5 5 5 6 6 6 5 6 6
8 8 7 7 7 6 6 6 6 7 7 7 7 8 8 7 6 6 5 5 5 5 5 5 5 5 5 5 5 5 5 5 5 6 5 5 5 6 6 6 5 5 5
9 8 7 6 6 5 6 6 6 6 6 7 7 7 7 6 6 6 5 5 4 4 4 5 5 5 5 5 5 5 5 5 5 5 5 5 6 6 6 5 5 5 5
10 8 6 5 5 5 5 6 5 6 6 6 6 6 5 6 5 5 5 5 4 4 4 4 5 5 5 5 5 6 5 5 5 5 5 5 5 5 5 5 4 4 4
10 10 8 6 5 5 5 5 5 5 6 6 5 5 5 5 5 5 5 5 4 4 4 5 5 6 5 5 5 5 5 5 5 5 5 5 5 4 5 4 4 4 3
11 10 9 7 6 5 4 4 5 5 5 5 5 5 5 5 5 5 4 4 4 4 4 4 5 5 5 5 5 4 4 4 4 5 5 5 5 4 4 4 3 3 3
12 11 9 8 6 5 4 4 4 4 4 5 5 4 4 4 4 4 4 4 4 4 4 4 4 4 4 4 4 4 4 3 4 4 4 4 4 3 3 3 3 2 2
13 12 10 8 6 6 5 4 3 3 4 4 4 4 3 4 3 3 3 3 4 4 4 3 3 4 3 3 3 3 4 3 4 3 3 3 3 3 3 2 2 2 2
13 12 11 10 8 7 5 3 3 3 3 3 3 3 3 3 2 2 2 3 4 4 4 3 3 3 3 3 3 3 3 3 3 3 3 2 2 2 2 3 3 3 3
13 12 11 9 9 7 5 4 3 2 2 3 2 2 2 2 2 3 3 3 4 3 3 3 3 3 3 2 2 2 2 2 2 2 3 2 2 2 3 4 4 4 5
13 12 10 9 8 7 6 5 3 2 2 2 1 1 1 2 2 3 3 3 3 4 3 3 3 3 3 3 2 2 2 3 3 3 4 4 4 4 4 5 5 6 6
14 12 11 9 8 7 6 5 4 2 1 0 0 1 1 2 2 3 4 4 4 4 4 4 4 4 4 4 4 3 4 4 4 4 5 5 5 5 6 6 6 7 8
14 13 12 11 9 8 7 5 4 2 1 1 1 2 2 2 2 3 4 5 5 5 5 5 5 6 6 6 6 5 5 5 6 6 6 6 7 7 7 8 8 9 10
15 14 12 11 10 9 7 6 4 3 1 1 1 2 3 3 3 3 4 5 6 6 6 6 6 7 7 8 8 8 7 7 7 8 8 8 9 9 9 9 10 10 11
15 14 13 12 10 9 8 7 5 3 2 2 2 3 4 4 4 5 5 6 6 6 7 7 8 8 9 9 9 9 9 10 10 9 10 11 11 11 12 12 12 13 13
14 14 14 13 11 10 8 7 6 5 3 2 2 3 4 4 5 5 6 6 6 7 7 8 9 10 11 11 11 11 11 11 12 12 13 13 13 13 14 14 14 15 15
14 14 13 13 12 10 9 8 7 5 5 3 3 3 3 4 5 5 6 7 7 8 8 9 10 11 11 12 13 13 13 13 14 14 15 15 15 16 16 17 16 17 18
14 14 13 13 12 11 10 9 8 7 6 5 5 4 5 5 6 7 8 9 9 10 10 11 12 12 12 12 13 14 14 15 15 16 16 16 17 18 18 19 18 19 19
14 14 14 14 13 12 12 11 9 7 7 6 6 6 6 6 7 8 9 9 10 11 11 11 12 13 13 14 15 15 15 16 16 17 17 17 18 19 20 20 20 20 20
Wind_Direction
59 60 64 71 73 76 78 77 74 71 71 73 76 74 73 72 70 70 78 100 128 140 142 141 146 149 148 139 133 128 128 130 129 123 126 128 126 125 126 130 129 127 126
61 64 68 71 72 73 74 76 76 71 71 77 82 77 74 71 71 72 81 94 111 130 137 139 140 145 140 136 133 131 132 133 128 124 126 126 126 129 128 124 126 130 129
66 70 72 73 74 74 74 77 78 73 72 78 81 79 76 74 76 80 84 92 104 117 122 126 125 133 133 135 133 132 131 130 127 126 127 127 124 127 129 130 129 130 129
69 74 75 75 73 72 74 76 76 72 72 77 81 80 77 78 79 83 86 93 100 112 120 122 117 128 135 142 140 133 132 136 135 131 129 128 127 129 131 131 126 127 127
73 77 79 77 76 75 76 78 74 70 70 78 83 81 80 80 79 82 85 90 96 109 113 117 113 121 128 134 138 135 136 139 138 135 133 134 134 135 133 134 131 133 134
75 79 79 79 80 80 80 79 76 73 71 79 84 84 83 82 80 83 90 91 95 107 112 117 121 121 124 130 137 142 144 140 139 138 137 136 136 140 136 138 136 137 139
70 76 78 80 83 84 82 79 78 79 77 78 82 81 82 82 83 88 90 91 96 105 109 116 116 114 122 129 130 137 144 140 141 141 136 136 134 141 144 140 137 138 138
67 75 78 79 80 80 81 81 82 84 84 81 80 78 81 83 89 94 95 98 96 99 104 104 109 113 123 125 130 137 140 140 136 138 138 137 138 145 147 145 145 145 142
60 69 78 76 79 80 80 80 83 85 87 85 82 79 81 85 85 92 93 93 90 94 101 108 113 110 116 123 130 137 137 138 131 136 136 135 134 141 145 149 153 151 146
52 58 68 70 75 77 79 82 85 87 90 90 89 83 82 86 87 90 98 94 96 100 104 111 111 109 115 116 120 124 128 131 127 133 134 133 132 138 144 153 159 157 152
49 51 60 61 65 68 73 79 88 88 90 91 89 83 83 88 93 94 100 103 101 108 103 111 112 112 116 111 114 119 122 123 123 130 135 137 138 143 151 152 158 153 151
43 45 52 51 53 62 70 79 85 86 91 91 91 89 91 94 96 100 104 108 103 108 104 104 109 113 119 117 115 117 119 121 125 130 135 139 143 148 149 150 154 154 160
40 40 45 50 51 52 65 76 81 84 88 90 93 95 92 98 100 103 106 113 116 118 115 111 114 114 121 123 125 125 125 124 133 135 137 140 146 154 156 157 158 163 170
41 41 46 54 53 52 60 73 81 85 87 92 93 96 97 103 105 106 106 116 122 123 124 123 123 123 121 119 120 125 133 131 136 140 141 143 150 162 166 172 175 180 190
41 41 44 48 53 53 63 81 87 91 93 104 104 105 103 106 113 118 115 127 137 137 139 137 130 126 121 117 117 122 128 137 145 146 152 155 153 169 184 198 208 212 222
39 41 43 46 52 50 58 77 80 84 99 107 102 113 110 113 126 126 130 153 148 144 144 144 139 138 137 124 123 129 137 146 156 167 170 175 183 195 211 223 231 237 243
36 40 41 43 43 45 56 63 76 75 83 93 101 115 119 125 145 152 139 151 160 153 155 161 157 166 167 158 160 168 171 179 184 191 200 210 221 230 235 238 246 251 255
35 36 39 40 41 47 52 52 67 67 88 99 112 126 145 157 169 179 176 174 182 187 190 194 197 195 192 196 204 210 212 211 216 227 232 237 245 254 256 257 263 267 265
33 35 36 37 39 41 42 43 46 53 57 349 202 207 207 211 214 210 208 206 205 210 213 221 224 223 224 230 235 239 238 238 235 241 246 251 256 262 264 264 270 276 274
32 34 35 35 37 35 36 36 33 32 28 275 239 225 227 235 243 239 228 222 220 224 230 236 237 238 240 242 245 246 246 245 244 248 253 257 260 264 267 267 270 275 277
32 35 37 36 35 33 34 35 32 25 14 331 270 247 243 245 252 248 241 232 234 236 239 242 243 245 247 250 250 251 250 250 253 254 258 261 262 264 267 269 271 275 279
28 31 35 33 32 31 31 29 25 23 10 328 293 263 252 252 251 248 248 243 243 245 246 248 247 249 256 256 256 258 254 253 257 260 260 262 264 267 269 271 274 276 278
27 28 27 25 25 25 23 22 17 9 347 305 302 281 258 255 255 250 253 253 251 251 255 257 257 258 259 258 259 260 258 259 261 261 263 263 265 269 272 274 277 279 279
24 23 22 20 20 20 15 12 10 2 351 334 318 298 281 269 264 264 268 265 261 261 262 262 263 264 263 261 260 262 264 263 265 268 268 266 267 270 272 275 278 280 279
21 21 20 17 14 13 8 3 1 357 345 332 318 304 290 280 279 276 273 272 269 269 269 266 266 269 267 266 264 263 265 266 268 269 271 271 270 271 273 276 278 281 282
20 19 17 13 11 8 5 3 356 348 339 332 321 307 292 285 281 280 278 276 274 275 275 270 270 272 269 267 266 265 265 267 270 270 271 272 271 272 274 275 276 278 281